Regional Weather Roundup
Issued by NWS

Home | Current Version | Previous Version | Text Only | Print | Product List | Glossary On
Versions: 1 2 3 4 5 6 7 8 9 10 11 12 13 14 15 16 17 18 19 20 21 22 23 24 25 26 27 28 29 30 31 32 33 34 35 36 37 38 39 40 41 42 43 44 45 46 47 48 49 50
000
ASUS43 KDTX 211810
RWRMI
MICHIGAN HOURLY REGIONAL WEATHER ROUNDUP
NATIONAL WEATHER SERVICE DETROIT/PONTIAC MI
200 PM EDT TUE OCT 21 2014

NOTE: "FAIR" INDICATES FEW OR NO CLOUDS BELOW 12,000 FEET WITH NO
SIGNIFICANT WEATHER AND/OR OBSTRUCTION TO VISIBILITY.

MIZ047>049-052>055-059>063-066>070-074>076-081>083-211900-
SOUTHEAST LOWER MICHIGAN

CITY           SKY/WX    TMP DP  RH WIND       PRES   REMARKS
ADRIAN         CLOUDY    47  39  74 N16G25    30.08R
6HR MIN TEMP:  47; 6HR MAX TEMP:  50; 6HR PCP: TRACE;

ALMA           CLOUDY    47  36  66 N10G17    30.14S
ANN ARBOR      CLOUDY    47  37  68 N17G25    30.06S
BAD AXE        CLOUDY    43  39  83 N17G28    30.09R
6HR MIN TEMP:  43; 6HR MAX TEMP:  44;

DETROIT CITY   CLOUDY    49  38  65 N14G24    30.05R
6HR MIN TEMP:  48; 6HR MAX TEMP:  50;

DETROIT        CLOUDY    48  39  71 NW15G21   30.05S
6HR MIN TEMP:  46; 6HR MAX TEMP:  48; 6HR PCP: TRACE;

FLINT          CLOUDY    46  37  71 N20G26    30.10R
6HR MIN TEMP:  46; 6HR MAX TEMP:  47; 6HR PCP:  0.01;

GROSSE ILE     CLOUDY    48  39  71 N15       30.03S
HILLSDALE      CLOUDY    49  40  71 N12       30.08R
HOWELL         CLOUDY    45  37  74 N12G18    30.08S
6HR MIN TEMP:  44; 6HR MAX TEMP:  45;


CITY           SKY/WX    TMP DP  RH WIND       PRES   REMARKS
JACKSON        CLOUDY    47  39  74 N9        30.09R
6HR MIN TEMP:  45; 6HR MAX TEMP:  48; 6HR PCP:  0.03;

LAMBERTVILLE   CLOUDY    48  41  76 N14       30.06R
LANSING        CLOUDY    47  36  65 N14       30.12S
6HR MIN TEMP:  45; 6HR MAX TEMP:  47; 6HR PCP: TRACE;

LAPEER         NOT AVBL
MASON          CLOUDY    46  38  76 N10       30.10S
MONROE         CLOUDY    48  41  76 N12       30.04R
MT. CLEMENS    CLOUDY    46  41  81 NW18      30.01S
6HR MIN TEMP:  46; 6HR MAX TEMP:  47; 6HR PCP: TRACE;

PONTIAC        CLOUDY    44  37  76 N16G23    30.05R
6HR MIN TEMP:  44; 6HR MAX TEMP:  46; 6HR PCP: TRACE;

PORT HOPE        N/A     46  40  79 N18G26    30.07S
6HR MIN TEMP:  46; 6HR MAX TEMP:  47;

PORT HURON     CLOUDY    45  41  87 N10G16    30.02S
TRI CITIES     LGT RAIN  47  35  63 N16G23    30.14R
6HR MIN TEMP:  46; 6HR MAX TEMP:  47; 6HR PCP:  0.01;

YPSILANTI      CLOUDY    50  38  63 N17       30.06S
6HR MIN TEMP:  50; 6HR MAX TEMP:  52; 6HR PCP:  0.01;

$$
MIZ043>046-050>051-056>058-064>065-071>073-077>080-211900-
SOUTHWEST LOWER MICHIGAN

CITY           SKY/WX    TMP DP  RH WIND       PRES   REMARKS
BATTLE CREEK   CLOUDY    49  37  63 N14       30.12R
6HR MIN TEMP:  46; 6HR MAX TEMP:  49; 6HR PCP:  0.01;

BENTON HARBOR  CLOUDY    49  41  74 VRB5      30.13S
6HR MIN TEMP:  47; 6HR MAX TEMP:  53; 6HR PCP:  0.08;

BIG RAPIDS     CLOUDY    46  39  75 N9G16     30.14S
6HR MIN TEMP:  44; 6HR MAX TEMP:  46;

COLDWATER      CLOUDY    50  40  70 N13       30.10R
6HR MIN TEMP:  46; 6HR MAX TEMP:  51;

HOLLAND        CLOUDY    50  39  66 N6        30.15S
6HR MIN TEMP:  49; 6HR MAX TEMP:  52;

GRAND RAPIDS   CLOUDY    48  38  68 N10       30.14R
6HR MIN TEMP:  47; 6HR MAX TEMP:  49; 6HR PCP: TRACE;

KALAMAZOO      CLOUDY    48  41  76 N9        30.13R
6HR MIN TEMP:  46; 6HR MAX TEMP:  50; 6HR PCP:  0.01;

MARSHALL       CLOUDY    46  38  71 N5        30.10S
MUSKEGON       CLOUDY    50  36  58 N13       30.17R
6HR MIN TEMP:  47; 6HR MAX TEMP:  51; 6HR PCP: TRACE;

$$
MIZ016>042-211900-
NORTHERN LOWER MICHIGAN

CITY           SKY/WX    TMP DP  RH WIND       PRES   REMARKS
ALPENA         PTSUNNY   45  31  58 N20       30.17S
6HR MIN TEMP:  42; 6HR MAX TEMP:  46;

BEAVER ISLAND  SUNNY     48  34  58 N8        30.22S
6HR MIN TEMP:  42; 6HR MAX TEMP:  48;

BELLAIRE       MOSUNNY   50  33  51 N6        30.18S
CADILLAC       MOSUNNY   47  36  64 N12       30.14S
CHARLEVOIX     SUNNY     47  36  66 N12       30.23R
6HR MIN TEMP:  44; 6HR MAX TEMP:  47;

FRANKFORT      CLEAR     51  35  54 N10G17    30.19S
GAYLORD        SUNNY     45  29  53 NE9       30.16S
6HR MIN TEMP:  40; 6HR MAX TEMP:  46;

GRAYLING       SUNNY     49  29  45 N10G17    30.16R
6HR MIN TEMP:  41; 6HR MAX TEMP:  49;

HARBOR SPRINGS SUNNY     49  31  49 N12       30.19S
HOUGHTON LAKE  MOSUNNY   49  32  52 NE15G21   30.14S
6HR MIN TEMP:  41; 6HR MAX TEMP:  49;

MANISTEE       MOSUNNY   52  34  50 NW13      30.18S
OSCODA         CLOUDY    45  35  67 N16G26    30.13R
PELLSTON       SUNNY     47  30  51 VRB6      30.21S
6HR MIN TEMP:  41; 6HR MAX TEMP:  47;

TRAVERSE CITY  MOSUNNY   48  34  58 N9G18     30.17F
6HR MIN TEMP:  46; 6HR MAX TEMP:  49;

$$
MIZ007>008-015-211900-
EASTERN UPPER MICHIGAN

CITY           SKY/WX    TMP DP  RH WIND       PRES   REMARKS
KINROSS        SUNNY     45  28  53 N10       30.21S
6HR MIN TEMP:  36; 6HR MAX TEMP:  45;

MACKINAC ISLAN SUNNY     46  30  53 N9        30.20F
6HR MIN TEMP:  39; 6HR MAX TEMP:  46;

NEWBERRY       SUNNY     44  32  61 NE7       30.22S
S. S. MARIE    SUNNY     44  26  49 VRB3      30.22S
6HR MIN TEMP:  36; 6HR MAX TEMP:  45;

$$
MIZ004>006-011>014-085-211900-
CENTRAL UPPER MICHIGAN

CITY           SKY/WX    TMP DP  RH WIND       PRES   REMARKS
MANISTIQUE     SUNNY     50  33  52 N12G17    30.22S
ESCANABA       SUNNY     48  30  49 NE6       30.23S
6HR MIN TEMP:  41; 6HR MAX TEMP:  48;

MENOMINEE      MOSUNNY   50  34  53 E13       30.23S
6HR MIN TEMP:  43; 6HR MAX TEMP:  50;

SAWYER-GWINN   SUNNY     41  32  70 NE10      30.25S
$$
MIZ001>003-009>011-084-211900-
WESTERN UPPER MICHIGAN

CITY           SKY/WX    TMP DP  RH WIND       PRES   REMARKS
IRON MOUNTAIN  SUNNY     47  31  53 N7        30.23F
6HR MIN TEMP:  40; 6HR MAX TEMP:  47;

HOUGHTON       SUNNY     45  31  58 E9        30.26F
6HR MIN TEMP:  38; 6HR MAX TEMP:  45;

COPPER HARBOR    N/A     43  33  68 VRB5      30.28F
6HR MIN TEMP:  41; 6HR MAX TEMP:  44;

IRONWOOD       PTSUNNY   43  34  70 CALM      30.23F
6HR MIN TEMP:  37; 6HR MAX TEMP:  43;

$$

ABBREVIATIONS USED IN REMARKS
   TC - TEMPERATURE IN CELSIUS
  WCI - WIND CHILL INDEX
   HX - HEAT INDEX
  VSB - VISIBILITY




USA.gov is the U.S. government's official web portal to all federal, state and local government web resources and services.